Location: Arnoldsreuth
(49.9263°N, 12.0167°E)
Time: 14:53:28
(UTC+00:00)

Daily predictions for brighter satellites

Satellite Brightness Start Highest point End
(mag) Time Altitude Azimuth Time Altitude Azimuth Time Altitude Azimuth
COBE Rocket 4.3 16:28:54 10° N 16:34:06 76° WNW 16:39:16 10° SSW
Cosmos 2263 Rocket 3.8 16:32:24 10° ESE 16:34:56 13° E 16:37:28 10° ENE
Starlink U 3.2 16:32:20 10° WNW 16:35:35 56° NNE 16:38:50 10° E
Shenzhou-11 Module 4.2 16:34:00 10° SW 16:35:55 17° S 16:37:49 10° SE
Starlink B 3.2 16:34:40 10° WNW 16:37:55 56° NNE 16:41:10 10° E
USA 267 3.5 16:35:34 10° ENE 16:42:02 58° SE 16:48:28 10° SW
Cosmos 2251 Rocket 3.5 16:36:44 10° NNW 16:42:05 81° ENE 16:47:26 10° SSE
Cosmos 1626 4.1 16:40:01 10° SW 16:43:20 30° WNW 16:46:38 10° N
ISS -3.7 16:41:23 10° WSW 16:44:47 81° NNW 16:48:05 11° ENE
H-2A R/B 3.4 16:41:00 10° S 16:44:50 63° WSW 16:48:45 10° NNW
Cosmos 2227 Rocket 2.4 16:39:18 10° SSW 16:44:57 81° WNW 16:50:39 10° NNE
Envisat 3.0 16:42:34 10° SSE 16:47:39 79° ENE 16:52:45 10° NNW
Cosmos 1939 Rocket 4.0 16:45:25 10° ESE 16:48:32 22° ENE 16:51:42 10° NNE
Cosmos 2218 Rocket 4.1 16:43:41 10° S 16:49:55 59° E 16:56:12 10° NNE
Cosmos 2221 3.4 16:47:30 10° N 16:51:14 28° ENE 16:54:57 10° SE
Iridium 96 3.6 16:48:53 10° N 16:51:22 89° E 16:54:00 10° S
Cosmos 1825 Rocket 3.6 16:47:54 10° S 16:52:14 84° W 16:56:35 10° N
ATLAS 5 CENTAUR R/B 3.5 16:49:05 10° NW 16:52:45 41° NE 17:04:07 10° ESE
Cosmos 1959 Rocket 4.5 16:47:38 10° S 16:53:39 60° E 16:59:39 10° NNE
H-2A R/B 3.7 16:52:32 11° ENE 16:54:39 13° NE 16:57:02 10° NNE
Meteor 1-27 4.5 16:49:27 10° N 16:54:49 46° ENE 17:00:10 10° SE
SMAP 3.9 16:50:39 10° S 16:55:13 57° W 16:59:49 10° NNW
Starlink D 3.1 16:52:24 10° WNW 16:55:43 65° NNE 16:58:46 12° E
USA 32 4.2 16:51:14 10° S 16:56:28 79° W 17:01:44 10° N
Cosmos-2242 3.6 16:53:28 10° NNW 16:57:44 63° W 17:01:57 10° S
Starlink S 3.0 16:54:49 10° WNW 16:58:08 66° NNE 17:01:06 12° E
Cosmos 1943 3.6 16:53:35 10° NNW 16:58:56 41° NE 17:04:16 10° ESE
Starlink C 3.0 16:57:12 10° WNW 17:00:32 68° NNE 17:03:23 13° E
Starlink E 3.0 16:59:38 10° WNW 17:02:58 69° NNE 17:05:44 14° E
Cosmos 407 Rocket 3.9 17:00:23 10° NNW 17:05:22 40° ENE 17:10:16 10° SE
Starlink J 3.0 17:02:05 10° WNW 17:05:24 71° NNE 17:08:05 15° ESE
USA 102 1.2 16:59:45 10° SSE 17:05:24 64° E 17:05:24 64° E
Starlink V 3.0 17:04:30 10° WNW 17:07:50 73° NNE 17:10:25 16° ESE
SL-8 R/B 3.8 17:03:26 10° WSW 17:08:15 73° S 17:12:11 15° E
Starlink H 3.0 17:06:57 10° WNW 17:10:17 75° NNE 17:12:47 17° ESE
CSL-04 Debris 4.3 17:06:03 10° SE 17:11:15 52° ENE 17:16:31 10° N
Cosmos 2058 4.4 17:09:28 10° SE 17:12:10 17° E 17:12:23 17° E
Starlink F 3.0 17:09:24 10° WNW 17:12:44 77° NNE 17:15:09 18° ESE
Cosmos 2366 rocket 4.0 17:07:39 10° S 17:13:54 81° E 17:20:15 10° NNE
BREEZE-M DEB (TANK) 2.8 17:12:10 10° SW 17:14:19 39° SSE 17:15:43 20° E
Starlink G 3.0 17:11:51 10° WNW 17:15:12 79° NNE 17:17:30 19° ESE
ADEOS Rocket 4.1 17:11:03 10° NNE 17:17:05 31° E 17:23:32 10° SSE
ERBS 3.8 17:14:40 10° WNW 17:17:33 26° N 17:19:26 16° NE
Starlink L 2.9 17:14:18 10° WNW 17:17:39 81° NNE 17:19:51 20° ESE
SWAS 4.4 17:13:25 10° SSW 17:17:44 84° ESE 17:22:00 11° NNE
Cosmos 1328 3.9 17:14:05 10° SSW 17:18:06 78° W 17:22:08 10° N
USA 234 3.5 17:11:39 10° SE 17:18:10 74° SW 17:24:44 10° WNW
SKYMED 2 3.5 17:14:51 10° NNE 17:19:11 63° ESE 17:23:29 10° S
Starlink A 2.9 17:16:46 10° WNW 17:20:06 83° NNE 17:22:13 21° ESE
FengYun 1-2 T 4.4 17:15:01 10° SSE 17:20:41 83° WSW 17:26:24 10° NNW
Starlink R 2.9 17:19:13 10° WNW 17:22:34 85° NNE 17:24:36 22° ESE
ATLAS 5 CENTAUR R/B 3.7 17:19:45 10° NW 17:23:14 19° N 17:26:19 12° NE
Cosmos 44 Rocket 3.5 17:19:56 10° SSW 17:24:33 49° ESE 17:27:40 19° NE
Starlink K 2.9 17:21:40 10° WNW 17:25:02 87° NNE 17:26:57 23° ESE
Starlink M 3.0 17:24:07 10° WNW 17:27:28 89° NNE 17:29:18 25° ESE
CSL-04 Rocket 3.7 17:22:16 10° SSE 17:27:45 69° ENE 17:33:18 10° N
Okean-O 3.5 17:24:48 10° S 17:29:07 52° W 17:33:29 10° NNW
Cosmos 1455 4.2 17:26:12 10° NNW 17:29:36 32° W 17:32:57 10° SSW
Ariane Rocket 3.5 17:26:36 10° SE 17:31:11 36° ENE 17:35:49 10° N
Cosmos 614 Rocket 3.9 17:28:08 10° NNW 17:33:21 69° ENE 17:38:34 10° SSE
YAOGAN 1 2.5 17:29:29 10° SSE 17:33:49 80° ENE 17:38:10 10° NNW
CZ-4 R/B 1.5 17:30:04 10° SSE 17:34:12 81° WSW 17:38:25 10° NNW
Cosmos 1703 4.2 17:32:57 10° SSW 17:36:49 50° WNW 17:40:43 10° N
USA 238 DEB 4.1 17:34:00 10° S 17:40:07 40° ESE 17:43:45 23° ENE
USA 238 4.1 17:34:08 10° S 17:40:13 39° ESE 17:43:48 23° ENE
Cosmos 1727 Rocket 4.3 17:36:57 10° NNW 17:43:06 71° W 17:49:14 10° S
ATLAS CENTAUR R/B 4.1 17:41:04 10° WNW 17:43:57 19° WSW 17:46:42 10° SSW
Cosmos 2084 3.7 17:42:03 10° NW 17:46:20 48° NE 17:47:41 35° E
Starlink AS 3.0 17:44:20 10° WNW 17:47:14 62° SSW 17:47:54 45° SSE
Starlink BA 3.0 17:44:31 10° WNW 17:47:25 62° SSW 17:48:05 45° SSE
Starlink AU 3.0 17:44:45 10° WNW 17:47:40 62° SSW 17:48:19 45° SSE
Starlink AT 3.0 17:45:00 10° WNW 17:47:54 61° SSW 17:48:33 45° SSE
Starlink BB 3.0 17:45:13 10° WNW 17:48:07 61° SSW 17:48:45 45° SSE
Starlink BC 3.0 17:45:26 10° WNW 17:48:20 61° SSW 17:48:58 46° SSE
Starlink BK 3.0 17:45:39 10° WNW 17:48:33 61° SSW 17:49:11 46° SSE
Starlink AY 3.0 17:45:54 10° WNW 17:48:48 61° SSW 17:49:24 46° SSE
Starlink AW 3.0 17:46:08 10° WNW 17:49:03 60° SSW 17:49:38 46° SSE
Starlink BJ 3.1 17:46:19 10° WNW 17:49:13 60° SSW 17:49:49 46° SSE
Meteor 2-2 Rocket 4.3 17:43:17 10° N 17:49:22 83° ENE 17:55:22 10° SSE
Starlink AV 3.1 17:46:34 10° WNW 17:49:28 60° SSW 17:50:04 46° SSE
Starlink BD 3.1 17:46:48 10° WNW 17:49:42 60° SSW 17:50:16 47° SSE
Starlink BE 3.1 17:46:59 10° WNW 17:49:54 60° SSW 17:50:30 46° SSE
Starlink BM 3.1 17:47:15 10° WNW 17:50:09 59° SSW 17:50:42 47° SSE
Starlink AX 3.1 17:47:27 10° WNW 17:50:21 59° SSW 17:50:54 47° SSE
Starlink BH 3.1 17:47:41 10° WNW 17:50:34 59° SSW 17:51:07 47° SSE
Starlink AZ 3.1 17:47:56 10° WNW 17:50:49 58° SSW 17:51:21 47° SSE
Starlink BG 3.1 17:48:08 10° WNW 17:51:02 58° SSW 17:51:33 47° SSE
Starlink BF 3.1 17:48:22 10° WNW 17:51:16 58° SSW 17:51:47 48° SSE
Starlink BL 3.1 17:48:32 10° WNW 17:51:28 58° SSW 17:52:00 47° SSE
Starlink AH 3.1 17:48:48 10° WNW 17:51:42 58° SSW 17:52:12 48° SSE
Starlink AC 3.1 17:49:02 10° WNW 17:51:56 57° SSW 17:52:25 48° SSE
Starlink X 3.1 17:49:15 10° WNW 17:52:09 57° SSW 17:52:38 48° SSE
Starlink AE 3.2 17:49:25 10° WNW 17:52:21 57° SSW 17:52:53 47° SSE
Starlink Z 3.1 17:49:42 10° WNW 17:52:35 57° SSW 17:53:03 48° SSE
Starlink AK 3.1 17:49:56 10° WNW 17:52:49 56° SSW 17:53:17 48° SSE
Cosmos 1023 Rocket 4.4 17:47:39 10° NNW 17:52:57 67° ENE 17:58:09 10° SSE
Starlink AL 3.1 17:50:10 10° WNW 17:53:03 56° SSW 17:53:30 48° SSE
Starlink AQ 3.1 17:50:22 10° WNW 17:53:16 56° SSW 17:53:43 49° SSE
Starlink AD 3.1 17:50:24 10° WNW 17:53:17 56° SSW 17:53:43 48° SSE
Cosmos 2056 Rocket 3.9 17:48:40 10° S 17:53:38 42° ESE 17:55:37 30° ENE
Starlink Y 3.1 17:50:50 10° WNW 17:53:43 56° SSW 17:54:09 49° S
Starlink AG 3.2 17:51:04 10° WNW 17:53:57 55° SSW 17:54:22 49° S
Starlink W 3.2 17:51:15 10° WNW 17:54:10 55° SSW 17:54:37 48° S
Starlink AJ 3.2 17:51:31 10° WNW 17:54:24 55° SSW 17:54:48 49° S
Starlink AM 3.2 17:51:58 10° WNW 17:54:51 55° SSW 17:55:14 49° S
Starlink AP 3.2 17:52:12 10° WNW 17:55:05 54° SSW 17:55:27 49° S
Starlink AA 3.2 17:52:24 10° WNW 17:55:18 54° SSW 17:55:39 49° S
Starlink AF 3.2 17:52:38 10° WNW 17:55:31 54° SSW 17:55:53 49° S
Starlink AB 3.2 17:52:51 10° WNW 17:55:44 54° SSW 17:56:05 49° S
Starlink AN 3.2 17:53:06 10° WNW 17:55:59 53° SSW 17:56:19 49° S
In-Cosmos 22 Rocket 4.5 17:50:58 10° SSE 17:56:14 43° E 18:00:45 13° NNE
CZ-2D R/B 3.5 17:57:24 10° S 18:01:14 68° WSW 18:05:07 10° NNW
Starlink T 3.5 17:59:28 10° WNW 18:02:42 54° SSW 18:03:10 48° S
Cosmos 1140 Rocket 3.4 17:59:24 10° NNW 18:04:41 80° ENE 18:09:42 11° SSE
Starlink N 3.5 18:01:43 10° WNW 18:04:56 52° SSW 18:05:19 48° S
MOS 1 4.4 18:00:49 17° SE 18:05:03 52° ENE 18:10:34 10° N
Starlink AR 3.9 18:03:24 10° WNW 18:05:53 36° SW 18:05:53 36° SW
CZ-2C R/B 3.7 18:06:48 38° ENE 18:07:09 38° ENE 18:12:25 10° N
COSMO-SKYMED 1 3.6 18:03:04 10° N 18:07:13 45° WNW 18:11:22 10° SW
Starlink Q 3.6 18:04:10 10° WNW 18:07:23 50° SSW 18:07:41 48° S
IRS-1A Rocket 4.2 18:01:45 10° SSE 18:07:23 66° ENE 18:12:57 10° N
ARGOS 3.5 18:08:17 40° ENE 18:08:34 41° ENE 18:13:36 10° N
Cosmos 1869 3.3 18:04:34 10° NNW 18:08:35 83° W 18:12:31 10° S
Starlink P 3.6 18:06:30 10° WNW 18:09:41 49° SSW 18:09:55 47° SSW
NOSS 3-3 (A) 4.5 18:02:42 10° NW 18:10:07 88° SW 18:17:24 14° SE
NOSS 3-3 (C) 4.5 18:02:48 10° NW 18:10:12 89° SW 18:17:24 14° SE
Cosmos 2227 4.1 18:05:41 10° SSW 18:11:26 86° ESE 18:15:05 24° NNE
Starlink U 3.7 18:08:49 10° WNW 18:12:00 47° SSW 18:12:09 46° SSW
Starlink B 3.8 18:11:09 10° WNW 18:14:19 45° SSW 18:14:23 45° SSW
Cosmos 2297 Rocket 4.2 18:11:33 10° W 18:16:00 23° NW 18:20:27 10° NNE
Cosmos 2263 Rocket 2.0 18:12:20 10° SSW 18:17:53 77° ESE 18:20:23 34° NE
USA 116 4.0 18:18:07 44° NW 18:18:33 48° WNW 18:21:34 10° SSW
DMSP B5D1-3 4.4 18:14:06 10° NNE 18:19:15 87° WNW 18:24:21 10° SSW
Cosmos 1821 Rocket 4.0 18:13:50 10° SSW 18:20:11 82° W 18:26:29 10° N
ISS -2.9 18:18:22 10° WNW 18:21:02 48° NW 18:21:02 48° NW
ATLAS 3B R/B 4.0 18:16:54 10° SSE 18:19:50 21° SE 18:19:50 21° SE
SJ-11-01 4.1 18:20:25 30° SSE 18:22:47 79° ENE 18:27:31 10° NNW
Cosmos 1939 Rocket 4.2 18:19:29 10° SSW 18:23:15 40° W 18:27:05 10° NNW
USA 267 3.4 18:22:00 32° NE 18:25:09 66° NNW 18:31:37 10° WSW
Cosmos 2221 4.2 18:24:58 10° NNW 18:28:50 33° W 18:32:41 10° SSW
Cosmos 2227 Rocket 4.3 18:25:43 10° W 18:29:56 21° NW 18:34:09 10° N
Cosmos 1605 Rocket 4.0 18:25:28 10° SSE 18:31:38 56° E 18:37:53 10° NNE
NOSS 3-2 (C) 3.6 18:27:15 10° SSW 18:32:21 47° SE 18:32:21 47° SE
H-2A R/B 1.9 18:33:08 68° ENE 18:33:08 68° ENE 18:38:18 10° N
Cosmos 1076 Rocket 3.9 18:31:15 10° SSW 18:35:32 62° WNW 18:37:45 27° N
Cosmos 1954 Rocket 4.0 18:30:16 10° NNW 18:35:38 83° WSW 18:37:30 42° SSE
CENTAUR R/B 3.1 18:30:53 10° S 18:35:03 37° SSE 18:35:03 37° SSE
SL-24 R/B 4.4 18:38:01 73° SE 18:38:25 80° ENE 18:43:57 10° NNW
Cosmos 1943 4.4 18:37:44 10° NW 18:43:00 41° WSW 18:48:16 10° S
Cosmos 2123 Rocket 4.2 18:39:27 10° NNW 18:45:45 71° W 18:51:58 10° S
Cosmos 1934 Rocket 3.9 18:41:52 10° SSW 18:47:55 80° W 18:54:02 10° N
NOSS 3-2 (A) 3.3 18:42:47 10° SW 18:48:38 84° SE 18:49:29 68° ENE
Cosmos 2058 3.6 18:44:38 10° SSW 18:48:40 51° WNW 18:48:42 51° WNW
SL-8 R/B 4.1 18:45:55 10° W 18:50:09 59° SW 18:50:09 59° SW
Cosmos 1371 Rocket 4.4 18:47:40 10° SW 18:52:47 60° WNW 18:54:20 42° N
Meteor 2-20 4.3 18:50:30 10° N 18:56:37 85° E 18:57:01 78° SSE
ADEOS Rocket 3.7 18:56:12 10° N 19:02:57 66° WNW 19:10:20 10° SSW
ATLAS 5 CENTAUR R/B 3.7 19:04:53 10° NW 19:07:51 25° N 19:07:51 25° N
Ariane Rocket 4.3 19:05:26 10° SSW 19:10:08 37° W 19:14:52 10° NNW
Cosmos 2082 Rocket 4.3 19:15:21 10° N 19:16:47 15° N 19:16:47 15° N
USA 238 DEB 4.0 19:24:10 10° WSW 19:30:50 61° NW 19:31:14 60° NNW
USA 238 4.0 19:24:16 10° WSW 19:30:56 62° NW 19:31:17 61° NNW
CZ-2C R/B 4.5 19:47:51 39° WNW 19:47:51 39° WNW 19:52:24 10° NNW
Cosmos 2263 Rocket 4.1 19:57:51 10° W 20:02:08 25° NW 20:02:08 25° NW
USA 267 4.3 20:09:22 40° NW 20:09:22 40° NW 20:13:55 10° WNW
H-2A R/B 4.4 20:13:45 19° WNW 20:13:45 19° WNW 20:16:46 10° NW
